Regional Weather Roundup
Issued by NWS Bismarck, ND

Home | Current Version | Previous Version | Text Only | Print | Product List | Glossary On
Versions: 1 2 3 4 5 6 7 8 9 10 11 12 13 14 15 16 17 18 19 20 21 22 23 24 25 26 27 28 29 30 31 32 33 34 35 36 37 38 39 40 41 42 43 44 45 46 47 48 49 50
000
ASUS43 KBIS 191920
RWRBIS

NWR BROADCAST TEXT
NATIONAL WEATHER SERVICE BISMARCK ND
200 PM CDT SUN APR 19 2015

NOTE: "FAIR" INDICATES FEW OR NO CLOUDS BELOW 12,000 FEET WITH NO
SIGNIFICANT WEATHER AND/OR OBSTRUCTIONS TO VISIBILITY.


CITY           SKY/WX    TMP DP  RH WIND       PRES   REMARKS
WILLISTON      CLOUDY    47  26  44 NW24G33   30.02F
MINOT          CLOUDY    45  36  70 NW23G35   29.88F
MINOT AFB      CLOUDY    45  39  80 NW29G35   29.87S
BISMARCK       MOSUNNY   47  41  80 NW22G31   29.88F
DICKINSON      PTSUNNY   42  31  64 NW28G37   29.96S
GARRISON         N/A     46  36  68 NW29G41   29.89S
HETTINGER ARPT CLOUDY    44  28  53 NW26G39   29.98F
JAMESTOWN      CLOUDY    50  36  58 N36G46    29.76S
BEACH          CLOUDY    43  27  52 NW29G37   30.06S
CARRINGTON     CLOUDY    45  43  93 N21G32    29.79F
CROSBY         CLOUDY    43  30  61 NW30G37   30.00S
HARVEY           N/A    N/A N/A N/A MISG        N/A
HAZEN          CLOUDY    45  32  61 NW26G33   29.93S
LINTON         CLOUDY    46  37  71 NW24G33   29.86S
MANDAN         CLOUDY    48  34  57 NW30G37   29.89S
OAKES            N/A     52  36  54 NW32      29.74F
RUGBY            N/A    N/A N/A N/A NW28      29.80F
STANLEY        CLOUDY    46  34  61 N29G39    29.93F
TIOGA          CLOUDY    39  37  93 N20G28    30.00F
WATFORD CITY   MOCLDY    41  34  75 N20G30    29.99F
$$

CITY           SKY/WX    TMP DP  RH WIND       PRES   REMARKS
GRAND FORKS    LGT RAIN  44  40  85 N24G32    29.70R
GRAND FORKS AF LGT RAIN  42  39  87 NW25G32   29.72R
DEVILS LAKE    CLOUDY    45  39  81 NW22      29.76F
FARGO          LGT RAIN  47  40  76 NW18G33   29.71S
CANDO          CLOUDY    45  41  87 N17G23    29.78F
CAVALIER       LGT RAIN  39  37  93 NW17G26   29.74R
GRAFTON        LGT RAIN  39  39 100 NW20G29   29.73R
GWINNER        MOCLDY    52  43  71 NW31      29.76R
LANGDON        CLOUDY    43  37  81 N21G28    29.75R
ROLLA          LGT RAIN  39  39 100 N22G29    29.80R
WALHALLA       LGT RAIN  41  41 100 NW17G25   29.75S
$$

CITY           SKY/WX    TMP DP  RH WIND       PRES   REMARKS
ABERDEEN       CLOUDY    53  30  41 NW24      29.81F
MOBRIDGE       CLOUDY    48  34  58 NW23G32   29.87S
BUFFALO          N/A     47  26  44 NW37G47   29.94S
RAPID CITY     MOSUNNY   51  23  33 NW40G51   30.00F
GLASGOW        MOSUNNY   52  19  27 N22G33    30.13F
SIDNEY         CLOUDY    45  28  53 NW20G31   30.06F
WOLF POINT     SUNNY     54  24  31 N24G37    30.09F
GLENDIVE       PTSUNNY   48  27  43 NW32G40   30.07F
MILES CITY     MOSUNNY   50  23  34 N24G33    30.12F
BAKER          CLOUDY    44  27  51 NW23G36   30.07F
$$

CITY           SKY/WX    TMP DP  RH WIND       PRES   REMARKS
BILLINGS       MOSUNNY   51  16  24 N14G22    30.17F
GREAT FALLS    CLOUDY    51  21  30 VRB6      30.18F
REGINA         PTSUNNY   43  30  61 NW24G31   30.07
ESTEVAN        HVY RAIN  45  28  53 NW25G36   29.97F
$$



USA.gov is the U.S. government's official web portal to all federal, state and local government web resources and services.